EW9132 Weather Reports


time (UTC)temp
F
wind
direction
speed
knots
gust
knots
rain 1hr
in
rain 24hr
in
rain mn
in
humidity
%
barometer
mb
20260507182524 56 23 2.6 4.3 0.00 0.00 0.00 77 1017.0
20260507182004 56 22 2.6 4.3 0.00 0.00 0.00 77 1017.0
20260507181503 56 22 2.6 4.3 0.00 0.00 0.00 76 1017.0
20260507181003 56 20 3.5 4.3 0.00 0.00 0.00 76 1017.0
20260507180503 56 21 4.3 5.2 0.00 0.00 0.00 76 1017.0
20260507180024 56 7 2.6 4.3 0.00 0.00 0.00 76 1017.0
20260507175503 56 6 2.6 3.5 0.00 0.00 0.00 76 1017.1
20260507175003 56 17 2.6 6.1 0.00 0.00 0.00 76 1017.1
20260507174524 56 20 3.5 4.3 0.00 0.00 0.00 76 1017.1
20260507174003 56 21 3.5 4.3 0.00 0.00 0.00 75 1017.1
20260507173503 57 24 3.5 5.2 0.00 0.00 0.00 76 1017.1
20260507173004 57 22 3.5 4.3 0.00 0.00 0.00 75 1017.1
20260507172503 57 21 3.5 6.1 0.00 0.00 0.00 75 1017.1
20260507172024 57 20 3.5 5.2 0.00 0.00 0.00 74 1017.1
20260507171503 57 23 3.5 5.2 0.00 0.00 0.00 74 1017.1
20260507171003 57 25 4.3 6.1 0.00 0.00 0.00 73 1017.1
20260507170503 57 4 1.7 6.1 0.00 0.00 0.00 73 1017.1
20260507170003 57 355 0.9 0.9 0.00 0.00 0.00 72 1017.1
20260507165503 57 355 0.9 1.7 0.00 0.00 0.00 71 1017.1
20260507165003 57 355 0.0 1.7 0.00 0.00 0.00 72 1017.2
20260507164503 57 355 0.0 0.0 0.00 0.00 0.00 72 1017.1
20260507164003 57 355 0.9 1.7 0.00 0.00 0.00 71 1017.1
20260507163503 57 355 1.7 2.6 0.00 0.00 0.00 70 1017.1
20260507163024 57 352 1.7 1.7 0.00 0.00 0.00 70 1017.2
20260507162503 58 354 2.6 2.6 0.00 0.00 0.00 69 1017.2
20260507162003 58 306 2.6 4.3 0.00 0.00 0.00 69 1017.2
20260507161503 58 295 1.7 4.3 0.00 0.00 0.00 70 1017.2
20260507161003 58 294 0.0 0.9 0.00 0.00 0.00 72 1017.3
20260507160503 58 290 0.9 2.6 0.00 0.00 0.00 70 1017.2
20260507160003 58 280 1.7 3.5 0.00 0.00 0.00 69 1017.3
20260507155503 59 0 0.0 0.0 0.00 0.00 0.00 70 1017.2
20260507155003 59 0 0.0 0.0 0.00 0.00 0.00 69 1017.2
20260507154503 59 278 0.0 0.0 0.00 0.00 0.00 70 1017.2
20260507154003 58 277 0.0 1.7 0.00 0.00 0.00 70 1017.1
20260507153504 58 277 0.0 1.7 0.00 0.00 0.00 69 1017.1
20260507153004 58 277 0.9 0.0 0.00 0.00 0.00 68 1017.2
20260507152503 59 275 1.7 1.7 0.00 0.00 0.00 68 1017.1
20260507152003 59 275 0.0 0.0 0.00 0.00 0.00 67 1017.1
20260507151503 59 275 0.9 1.7 0.00 0.00 0.00 67 1017.2
20260507151003 59 0 0.0 0.0 0.00 0.00 0.00 68 1017.1
20260507150503 59 0 0.0 0.0 0.00 0.00 0.00 69 1017.1
20260507150003 59 275 0.0 0.0 0.00 0.00 0.00 68 1017.1
20260507145503 59 275 0.9 1.7 0.00 0.00 0.00 69 1017.1
20260507145003 59 274 0.0 0.0 0.00 0.00 0.00 70 1017.1
20260507144503 59 274 0.0 0.9 0.00 0.00 0.00 69 1017.2
20260507144003 58 0 0.0 0.0 0.00 0.00 0.00 71 1017.2
20260507143503 58 0 0.0 0.0 0.00 0.00 0.00 71 1017.2
20260507143003 58 274 0.0 0.0 0.00 0.00 0.00 69 1017.1
20260507142503 58 274 0.0 0.0 0.00 0.00 0.00 70 1017.2
20260507142003 58 273 0.0 1.7 0.00 0.00 0.00 71 1017.2
20260507141503 58 271 0.0 2.6 0.00 0.00 0.00 70 1017.3
20260507141003 58 271 0.9 2.6 0.00 0.00 0.00 71 1017.3
20260507140503 58 271 0.0 0.9 0.00 0.00 0.00 70 1017.2
20260507140003 58 271 0.0 0.0 0.00 0.00 0.00 70 1017.3
20260507135503 58 0 0.0 0.0 0.00 0.00 0.00 69 1017.2
20260507135003 58 271 0.0 0.0 0.00 0.00 0.00 69 1017.3
20260507134503 57 0 0.0 0.0 0.00 0.00 0.00 69 1017.3
20260507134003 57 271 0.0 0.0 0.00 0.00 0.00 68 1017.3
20260507133503 57 0 0.0 0.0 0.00 0.00 0.00 69 1017.2
20260507133003 57 271 0.0 0.0 0.00 0.00 0.00 70 1017.3
20260507132503 57 271 0.9 0.9 0.00 0.00 0.00 70 1017.3
20260507132003 57 271 0.0 0.0 0.00 0.00 0.00 70 1017.3
20260507131503 57 271 0.0 1.7 0.00 0.00 0.00 70 1017.3
20260507131003 58 0 0.0 0.0 0.00 0.00 0.00 70 1017.3
20260507130503 57 0 0.0 0.0 0.00 0.00 0.00 71 1017.4
20260507130003 57 0 0.0 0.0 0.00 0.00 0.00 70 1017.3
20260507125503 57 0 0.0 0.0 0.00 0.00 0.00 71 1017.3
20260507125003 57 0 0.0 0.0 0.00 0.00 0.00 70 1017.4
20260507124503 57 0 0.0 0.0 0.00 0.00 0.00 70 1017.4
20260507124003 57 0 0.0 0.0 0.00 0.00 0.00 71 1017.4
20260507123503 57 0 0.0 0.0 0.00 0.00 0.00 71 1017.4
20260507123003 56 271 0.9 0.0 0.00 0.00 0.00 70 1017.4
20260507122503 57 271 0.9 2.6 0.00 0.00 0.00 70 1017.4
20260507122004 57 271 1.7 3.5 0.00 0.00 0.00 70 1017.4
20260507121503 57 271 1.7 4.3 0.00 0.00 0.00 72 1017.3
20260507121003 57 271 0.9 2.6 0.00 0.00 0.00 70 1017.3
20260507120503 57 271 1.7 4.3 0.00 0.00 0.00 71 1017.3
20260507120004 57 271 0.9 2.6 0.00 0.00 0.00 70 1017.4
20260507115503 57 271 2.6 2.6 0.00 0.00 0.00 69 1017.4
20260507115004 58 274 1.7 4.3 0.00 0.00 0.00 69 1017.3
20260507114503 58 275 0.9 2.6 0.00 0.00 0.00 70 1017.4
20260507114003 58 275 0.9 1.7 0.00 0.00 0.00 70 1017.3
20260507113503 58 271 1.7 2.6 0.00 0.00 0.00 70 1017.3
20260507113003 57 247 2.6 3.5 0.00 0.00 0.00 70 1017.2
20260507112503 58 246 2.6 1.7 0.00 0.00 0.00 70 1017.2
20260507112003 58 246 0.9 0.9 0.00 0.00 0.00 70 1017.3
20260507111504 58 241 2.6 3.5 0.00 0.00 0.00 70 1017.2
20260507111003 58 240 3.5 5.2 0.00 0.00 0.00 69 1017.2
20260507110503 58 288 1.7 3.5 0.00 0.00 0.00 69 1017.3
20260507110003 58 256 1.7 4.3 0.00 0.00 0.00 71 1017.3
20260507105503 58 121 0.9 0.9 0.00 0.00 0.00 69 1017.3
20260507105003 58 121 1.7 4.3 0.00 0.00 0.00 70 1017.3
20260507104504 58 129 1.7 1.7 0.00 0.00 0.00 69 1017.3
20260507104003 58 139 3.5 4.3 0.00 0.00 0.00 68 1017.4
20260507103503 59 136 2.6 7.0 0.00 0.00 0.00 67 1017.4
20260507103003 59 91 2.6 3.5 0.00 0.00 0.00 67 1017.4
20260507102503 59 70 1.7 5.2 0.00 0.00 0.00 67 1017.4
20260507102003 59 314 1.7 1.7 0.00 0.00 0.00 67 1017.5
20260507101503 59 272 2.6 4.3 0.00 0.00 0.00 70 1017.5
20260507101003 58 258 1.7 4.3 0.00 0.00 0.00 70 1017.4
20260507100503 58 226 0.9 3.5 0.00 0.00 0.00 72 1017.4
20260507100003 57 209 0.9 0.9 0.00 0.00 0.00 74 1017.4
20260507095503 56 210 1.7 4.3 0.00 0.00 0.00 73 1017.3
20260507095003 56 211 0.9 4.3 0.00 0.00 0.00 73 1017.3
20260507094503 55 211 1.7 1.7 0.00 0.00 0.00 76 1017.3
20260507094003 55 209 1.7 0.0 0.00 0.00 0.00 76 1017.3
20260507093503 55 210 2.6 4.3 0.00 0.00 0.00 76 1017.3
20260507093003 55 218 3.5 3.5 0.00 0.00 0.00 79 1017.2
20260507092503 55 218 3.5 4.3 0.00 0.00 0.00 79 1017.2
20260507092003 55 230 3.5 4.3 0.00 0.00 0.00 81 1017.2
20260507091503 55 238 2.6 4.3 0.00 0.00 0.00 84 1017.2
20260507091003 55 208 3.5 4.3 0.00 0.00 0.00 83 1017.2
20260507090503 55 197 4.3 5.2 0.00 0.00 0.00 83 1017.1
20260507090004 55 217 3.5 7.0 0.00 0.00 0.00 83 1017.0
20260507085503 55 205 2.6 6.1 0.00 0.00 0.00 82 1017.0
20260507085003 55 180 2.6 2.6 0.00 0.00 0.00 79 1017.0
20260507084503 55 180 0.9 3.5 0.00 0.00 0.00 81 1017.0
20260507084003 55 180 1.7 1.7 0.00 0.00 0.00 82 1016.9
20260507083503 55 185 1.7 2.6 0.00 0.00 0.00 83 1016.9
20260507083004 55 186 1.7 4.3 0.00 0.00 0.00 83 1016.9
20260507082503 54 193 0.9 2.6 0.00 0.00 0.00 85 1016.9
20260507082003 54 200 1.7 1.7 0.00 0.00 0.00 86 1016.8
20260507081503 54 220 0.9 0.9 0.00 0.00 0.00 88 1016.9
20260507081003 53 220 1.7 3.5 0.00 0.00 0.00 89 1016.9
20260507080503 53 220 0.9 3.5 0.00 0.00 0.00 90 1016.8
20260507080003 53 220 0.9 1.7 0.00 0.00 0.00 91 1016.7
20260507075524 53 220 0.9 1.7 0.00 0.00 0.00 91 1016.7
20260507075003 52 220 0.9 1.7 0.00 0.00 0.00 91 1016.6
20260507074503 52 299 1.7 2.6 0.00 0.00 0.00 92 1016.7
20260507074003 52 306 0.9 1.7 0.00 0.00 0.00 92 1016.7
20260507073524 52 306 0.9 0.9 0.00 0.00 0.00 92 1016.7
20260507073024 51 306 0.9 1.7 0.00 0.00 0.00 92 1016.7
20260507072503 51 306 1.7 2.6 0.00 0.00 0.00 92 1016.6
20260507072024 51 306 1.7 3.5 0.00 0.00 0.00 93 1016.6
20260507071504 51 307 1.7 1.7 0.00 0.00 0.00 93 1016.5
20260507071003 51 307 1.7 2.6 0.00 0.00 0.00 93 1016.5
20260507070503 51 307 1.7 3.5 0.00 0.00 0.00 93 1016.4
20260507070005 50 307 0.9 2.6 0.00 0.00 0.00 93 1016.4
20260507065524 50 310 1.7 1.7 0.00 0.00 0.00 94 1016.4
20260507065003 50 316 1.7 2.6 0.00 0.00 0.00 93 1016.4
20260507064503 50 316 1.7 2.6 0.00 0.00 0.00 93 1016.5
20260507064003 50 316 1.7 3.5 0.00 0.00 0.00 94 1016.4
20260507063524 50 316 1.7 3.5 0.00 0.00 0.00 94 1016.4
20260507063003 50 317 1.7 3.5 0.00 0.00 0.00 94 1016.3
20260507062503 50 318 1.7 3.5 0.00 0.00 0.00 94 1016.3
20260507062004 50 320 1.7 1.7 0.00 0.00 0.00 94 1016.3
20260507061503 49 320 0.9 1.7 0.00 0.00 0.00 94 1016.4
20260507061003 49 320 0.9 0.9 0.00 0.00 0.00 94 1016.3
20260507060503 49 320 0.9 1.7 0.00 0.00 0.00 94 1016.3
20260507060003 49 0 0.0 0.0 0.00 0.00 0.00 94 1016.2
20260507055503 49 0 0.0 0.0 0.00 0.00 0.00 94 1016.1
20260507055003 49 0 0.0 0.0 0.00 0.00 0.00 94 1016.0
20260507054503 49 0 0.0 0.0 0.00 0.00 0.00 94 1016.1
20260507054003 48 0 0.0 0.0 0.00 0.00 0.00 94 1016.0
20260507053503 48 0 0.0 0.0 0.00 0.00 0.00 94 1016.0
20260507053004 48 0 0.0 0.0 0.00 0.00 0.00 94 1015.9
20260507052503 48 0 0.0 0.0 0.00 0.00 0.00 94 1015.8
20260507052003 48 0 0.0 0.0 0.00 0.00 0.00 94 1015.8
20260507051504 48 0 0.0 0.0 0.00 0.00 0.00 93 1015.7
20260507051003 48 0 0.0 0.0 0.00 0.00 0.00 93 1015.6
20260507050503 48 0 0.0 0.0 0.00 0.00 0.00 93 1015.6
20260507050003 48 0 0.0 0.0 0.00 0.00 0.00 93 1015.5
20260507045503 48 0 0.0 0.0 0.00 0.00 0.00 93 1015.5
20260507045003 48 0 0.0 0.0 0.00 0.00 0.00 93 1015.5
20260507044503 48 0 0.0 0.0 0.00 0.00 0.00 93 1015.5
20260507044003 48 0 0.0 0.0 0.00 0.00 0.00 93 1015.4
20260507043503 48 0 0.0 0.0 0.00 0.00 0.00 93 1015.4
20260507043003 48 0 0.0 0.0 0.00 0.00 0.00 93 1015.4
20260507042503 49 0 0.0 0.0 0.00 0.00 0.00 93 1015.4
20260507042003 49 0 0.0 0.0 0.00 0.00 0.00 93 1015.4
20260507041503 49 320 0.0 0.0 0.00 0.00 0.00 93 1015.4
20260507041003 49 320 0.0 0.0 0.00 0.00 0.00 93 1015.4
20260507040503 49 320 0.0 0.9 0.00 0.00 0.00 93 1015.3
20260507040003 49 320 0.9 0.9 0.00 0.00 0.00 93 1015.4
20260507035504 49 320 0.9 1.7 0.00 0.00 0.00 92 1015.3
20260507035003 49 320 0.9 1.7 0.00 0.00 0.00 92 1015.3
20260507034503 49 320 0.0 1.7 0.00 0.00 0.00 92 1015.3
20260507034003 49 0 0.0 0.0 0.00 0.00 0.00 92 1015.3
20260507033503 49 0 0.0 0.0 0.00 0.00 0.00 92 1015.2
20260507033005 49 0 0.0 0.0 0.00 0.00 0.00 92 1015.2
20260507032503 49 0 0.0 0.0 0.00 0.00 0.00 92 1015.2
20260507032003 49 0 0.0 0.0 0.00 0.00 0.00 92 1015.1
20260507031503 49 0 0.0 0.0 0.00 0.00 0.00 92 1015.1
20260507031004 49 0 0.0 0.0 0.00 0.00 0.00 92 1015.1
20260507030503 49 0 0.0 0.0 0.00 0.00 0.00 92 1015.0
20260507030003 49 320 0.0 0.9 0.00 0.00 0.00 92 1015.0
20260507025503 49 320 0.0 0.9 0.00 0.00 0.00 92 1015.0
20260507025003 49 0 0.0 0.0 0.00 0.00 0.00 92 1014.9
20260507024503 49 320 0.0 0.0 0.00 0.00 0.00 91 1015.0
20260507024003 49 320 0.0 0.0 0.00 0.00 0.00 91 1014.9
20260507023503 49 320 0.0 0.0 0.00 0.00 0.00 91 1014.9
20260507023003 49 0 0.0 0.0 0.00 0.00 0.00 91 1014.9
20260507022503 49 0 0.0 0.0 0.00 0.00 0.00 91 1015.0
20260507022003 49 0 0.0 0.0 0.00 0.00 0.00 91 1015.0
20260507021503 49 0 0.0 0.0 0.00 0.00 0.00 91 1015.0
20260507021003 49 320 0.9 1.7 0.00 0.00 0.00 91 1014.9
20260507020503 49 320 0.9 1.7 0.00 0.00 0.00 91 1014.9
20260507020003 49 320 0.0 0.0 0.00 0.00 0.00 91 1014.8
20260507015503 49 320 0.9 2.6 0.00 0.00 0.00 91 1014.8
20260507015004 49 320 0.0 1.7 0.00 0.00 0.00 91 1014.8
20260507014524 49 320 0.0 0.9 0.00 0.00 0.00 90 1014.8
20260507014003 49 320 0.0 0.0 0.00 0.00 0.00 90 1014.7
20260507013503 49 320 0.0 1.7 0.00 0.00 0.00 90 1014.8
20260507013003 49 0 0.0 0.0 0.00 0.00 0.00 90 1014.7
20260507012503 49 0 0.0 0.0 0.00 0.00 0.00 90 1014.8
20260507012003 49 320 0.0 0.0 0.00 0.00 0.00 91 1014.8
20260507011503 49 320 0.0 0.9 0.00 0.00 0.00 91 1014.7
20260507011003 49 320 0.0 0.9 0.00 0.00 0.00 91 1014.7
20260507010524 49 320 0.9 3.5 0.00 0.00 0.00 90 1014.7
20260507010003 49 321 0.9 0.0 0.00 0.00 0.00 90 1014.7
20260507005524 49 321 0.0 0.9 0.00 0.00 0.00 90 1014.6
20260507005003 49 321 0.9 3.5 0.00 0.00 0.00 90 1014.6
20260507004524 49 320 1.7 3.5 0.00 0.00 0.00 90 1014.7
20260507004003 49 320 1.7 3.5 0.00 0.00 0.00 90 1014.7
20260507003503 49 315 1.7 4.3 0.00 0.00 0.00 90 1014.6
20260507003003 49 313 1.7 5.2 0.00 0.00 0.00 90 1014.7
20260507002503 49 311 2.6 4.3 0.00 0.00 0.00 90 1014.7
20260507002003 49 310 2.6 4.3 0.00 0.00 0.00 90 1014.6
20260507001503 49 314 3.5 5.2 0.00 0.00 0.00 90 1014.7
20260507001003 49 318 2.6 5.2 0.00 0.00 0.00 90 1014.7
20260507000503 49 309 2.6 4.3 0.00 0.00 0.00 90 1014.6
20260507000003 49 309 2.6 5.2 0.00 0.00 0.00 90 1014.6
20260506235503 49 305 2.6 4.3 0.00 0.00 0.00 90 1014.6
20260506235003 49 312 3.5 5.2 0.00 0.00 0.00 90 1014.6
20260506234503 49 312 3.5 5.2 0.00 0.00 0.00 90 1014.6
20260506234003 49 319 3.5 6.1 0.00 0.00 0.00 90 1014.7
20260506233503 49 312 3.5 6.1 0.00 0.00 0.00 90 1014.6
20260506233024 49 308 3.5 6.1 0.00 0.00 0.00 90 1014.6
20260506232503 49 316 3.5 4.3 0.00 0.00 0.00 90 1014.6
20260506232003 49 317 2.6 4.3 0.00 0.00 0.00 90 1014.5
20260506231503 49 308 3.5 4.3 0.00 0.00 0.00 90 1014.4
20260506231003 49 300 3.5 7.8 0.00 0.00 0.00 90 1014.4
20260506230503 48 319 2.6 5.2 0.00 0.00 0.00 90 1014.4
20260506230003 48 311 3.5 6.1 0.00 0.00 0.00 90 1014.3
20260506225503 48 315 2.6 4.3 0.00 0.00 0.00 90 1014.3
20260506225003 48 311 1.7 4.3 0.00 0.00 0.00 90 1014.3
20260506224503 48 297 2.6 5.2 0.00 0.00 0.00 90 1014.2
20260506224003 48 276 1.7 5.2 0.00 0.00 0.00 90 1014.2
20260506223524 48 276 0.9 1.7 0.00 0.00 0.00 90 1014.2
20260506223003 48 274 1.7 4.3 0.00 0.00 0.00 90 1014.2
20260506222503 48 283 1.7 4.3 0.00 0.00 0.00 90 1014.2
20260506222003 48 298 2.6 4.3 0.00 0.00 0.00 90 1014.2
20260506221504 48 302 2.6 3.5 0.00 0.00 0.00 90 1014.2
20260506221003 48 313 4.3 6.1 0.00 0.00 0.00 90 1014.2
20260506220503 48 318 3.5 5.2 0.00 0.00 0.00 89 1014.2
20260506220004 48 323 2.6 4.3 0.00 0.09 0.00 89 1014.2
20260506215503 48 305 2.6 5.2 0.00 0.09 0.09 89 1014.1
20260506215004 48 297 1.7 3.5 0.00 0.09 0.09 89 1014.2
20260506214503 48 298 1.7 4.3 0.00 0.09 0.09 89 1014.2
20260506214003 48 300 1.7 3.5 0.00 0.09 0.09 88 1014.2
20260506213503 48 299 1.7 2.6 0.00 0.09 0.09 88 1014.2
20260506213003 48 290 1.7 3.5 0.00 0.09 0.09 88 1014.1
20260506212503 48 279 1.7 6.1 0.00 0.09 0.09 88 1014.2
20260506212003 48 292 1.7 4.3 0.00 0.09 0.09 88 1014.2
20260506211503 48 300 1.7 3.5 0.00 0.09 0.09 88 1014.2
20260506211003 48 289 1.7 1.7 0.00 0.09 0.09 88 1014.1
20260506210503 48 307 0.9 1.7 0.00 0.09 0.09 88 1014.1
20260506210003 48 307 1.7 1.7 0.00 0.09 0.09 87 1014.1
20260506205524 48 301 1.7 4.3 0.00 0.09 0.09 87 1014.1
20260506205024 48 296 1.7 3.5 0.00 0.09 0.09 87 1014.0
20260506204503 48 287 2.6 4.3 0.00 0.09 0.09 87 1014.0
20260506204003 49 294 2.6 4.3 0.00 0.09 0.09 87 1014.0
20260506203524 49 287 1.7 1.7 0.00 0.09 0.09 86 1014.0
20260506203003 49 285 1.7 1.7 0.00 0.09 0.09 86 1013.9
20260506202503 49 293 2.6 6.1 0.00 0.09 0.09 86 1013.9
20260506202003 49 308 1.7 5.2 0.00 0.09 0.09 86 1013.8
20260506201524 49 303 3.5 5.2 0.00 0.09 0.09 86 1013.7
20260506201003 49 311 3.5 4.3 0.00 0.09 0.09 85 1013.7
20260506200524 50 312 1.7 4.3 0.00 0.09 0.09 85 1013.7
20260506200003 50 313 2.6 6.1 0.00 0.09 0.09 85 1013.7
20260506195503 50 322 2.6 6.1 0.00 0.09 0.09 84 1013.6
20260506195003 50 313 3.5 5.2 0.00 0.09 0.09 84 1013.5
20260506194503 50 322 2.6 4.3 0.00 0.09 0.09 84 1013.5
20260506194003 50 307 4.3 6.1 0.00 0.09 0.09 83 1013.5
20260506193503 51 320 3.5 4.3 0.00 0.09 0.09 83 1013.3
20260506193003 51 319 3.5 6.1 0.00 0.09 0.09 83 1013.4
20260506192503 51 313 4.3 7.0 0.00 0.09 0.09 82 1013.2
20260506192003 51 311 3.5 5.2 0.00 0.09 0.09 82 1013.2
20260506191524 52 325 3.5 3.5 0.00 0.09 0.09 82 1013.1
20260506191003 52 322 4.3 6.1 0.00 0.09 0.09 81 1013.0
20260506190503 52 318 5.2 7.0 0.00 0.09 0.09 81 1013.0
20260506190004 52 313 5.2 8.7 0.00 0.09 0.09 80 1013.0
20260506185503 53 315 6.1 10.4 0.00 0.09 0.09 80 1012.9
20260506185003 53 316 5.2 7.0 0.00 0.09 0.09 79 1012.9
20260506184503 53 314 7.8 9.6 0.00 0.09 0.09 79 1012.9
20260506184003 54 317 7.0 8.7 0.00 0.09 0.09 79 1012.9
20260506183524 54 318 5.2 7.8 0.00 0.09 0.09 78 1012.9
20260506183003 54 320 6.1 9.6 0.00 0.09 0.09 78 1012.8